TimeCDT,TemperatureF,Dew PointF,Humidity,Sea Level PressureIn,VisibilityMPH,Wind Direction,Wind SpeedMPH,Gust SpeedMPH,PrecipitationIn,Events,Conditions,WindDirDegrees,DateUTC
12:52 AM,66.0,66.0,100,29.97,5.0,NE,11.5,18.4,0.17,Rain,Light Rain,50,2012-09-29 05:52:00
1:38 AM,66.2,66.2,100,30.00,4.0,NE,9.2,-,0.05,Rain,Rain,40,2012-09-29 06:38:00
1:47 AM,66.2,66.2,100,29.99,6.0,NE,16.1,21.9,0.07,Rain,Light Rain,50,2012-09-29 06:47:00
1:52 AM,66.0,66.0,100,29.94,6.0,NE,16.1,-,0.07,Rain,Light Rain,50,2012-09-29 06:52:00
2:08 AM,66.2,66.2,100,29.99,6.0,NE,16.1,21.9,0.02,Rain,Light Rain,50,2012-09-29 07:08:00
2:52 AM,64.9,64.9,100,29.93,5.0,NE,12.7,-,0.11,Rain,Light Rain,50,2012-09-29 07:52:00
3:08 AM,64.4,64.4,100,29.98,4.0,NE,9.2,16.1,0.02,Rain,Rain,50,2012-09-29 08:08:00
3:52 AM,66.0,66.0,100,29.91,3.0,NE,9.2,17.3,0.18,Rain,Rain,40,2012-09-29 08:52:00
4:25 AM,66.2,66.2,100,29.96,2.0,ENE,12.7,-,0.25,Rain,Heavy Rain,60,2012-09-29 09:25:00
4:43 AM,66.2,66.2,100,29.96,2.0,ENE,12.7,-,0.46,Rain,Heavy Rain,60,2012-09-29 09:43:00
4:52 AM,64.9,64.9,100,29.90,2.5,NE,12.7,-,0.54,Rain,Heavy Rain,50,2012-09-29 09:52:00
5:12 AM,66.2,66.2,100,29.94,3.0,NE,12.7,20.7,0.20,Rain,Rain,40,2012-09-29 10:12:00
5:39 AM,66.2,66.2,100,29.94,3.0,NE,10.4,20.7,0.34,Rain,Heavy Rain,40,2012-09-29 10:39:00
5:52 AM,66.0,66.0,100,29.88,3.0,NE,13.8,24.2,0.42,Rain,Rain,50,2012-09-29 10:52:00
6:52 AM,64.9,64.9,100,29.90,4.0,NE,9.2,20.7,0.21,Rain,Rain,40,2012-09-29 11:52:00
7:52 AM,64.9,64.9,100,29.91,4.0,NE,10.4,21.9,0.35,Rain,Rain,50,2012-09-29 12:52:00
8:25 AM,64.4,64.4,100,29.96,2.0,NE,13.8,20.7,0.20,Rain,Heavy Rain,50,2012-09-29 13:25:00
8:33 AM,64.4,64.4,100,29.96,2.0,NE,10.4,23.0,0.26,Rain,Rain,40,2012-09-29 13:33:00
8:52 AM,64.9,64.9,100,29.93,2.0,NNE,11.5,18.4,0.37,Rain,Heavy Rain,30,2012-09-29 13:52:00
9:01 AM,64.4,64.4,100,29.98,2.0,NE,11.5,18.4,0.10,Rain,Heavy Rain,40,2012-09-29 14:01:00
9:28 AM,64.4,64.4,100,29.98,2.0,NE,15.0,20.7,0.36,Rain,Heavy Rain,50,2012-09-29 14:28:00
9:38 AM,64.4,64.4,100,29.97,2.0,NE,19.6,28.8,0.48,Rain,Heavy Rain,50,2012-09-29 14:38:00
9:45 AM,62.6,62.6,100,29.98,2.0,NE,15.0,28.8,0.52,Rain,Heavy Rain,50,2012-09-29 14:45:00
9:52 AM,63.0,-9999,N/A,29.93,2.0,NE,13.8,20.7,0.56,Rain,Rain,50,2012-09-29 14:52:00
10:02 AM,62.6,-9999,N/A,29.98,1.5,NE,9.2,17.3,0.09,Rain,Heavy Rain,40,2012-09-29 15:02:00
10:16 AM,62.6,-9999,N/A,29.99,2.5,NE,9.2,18.4,0.17,Rain,Rain,40,2012-09-29 15:16:00
10:52 AM,63.0,-9999,N/A,29.95,2.5,NE,12.7,-,0.38,Rain,Rain,50,2012-09-29 15:52:00
11:11 AM,62.6,60.8,94,29.98,2.5,NE,16.1,19.6,0.09,Rain,Rain,50,2012-09-29 16:11:00
11:52 AM,63.0,60.8,93,29.94,3.0,NE,9.2,-,0.23,Rain,Rain,40,2012-09-29 16:52:00
12:12 PM,64.4,62.6,94,29.99,3.0,NNE,9.2,-,0.06,Rain,Rain,30,2012-09-29 17:12:00
12:29 PM,64.4,62.6,94,29.98,2.5,NNE,6.9,-,0.13,Rain,Rain,30,2012-09-29 17:29:00
12:40 PM,64.4,62.6,94,29.98,3.0,NE,9.2,17.3,0.17,Rain,Rain,40,2012-09-29 17:40:00
12:52 PM,64.0,62.6,95,29.94,2.5,Variable,5.8,-,0.20,Rain,Rain,0,2012-09-29 17:52:00
1:07 PM,64.4,62.6,94,29.98,4.0,NE,10.4,-,0.02,Rain,Light Rain,40,2012-09-29 18:07:00
1:52 PM,64.0,62.6,95,29.93,8.0,NE,13.8,19.6,0.05,Rain,Light Rain,50,2012-09-29 18:52:00
2:52 PM,64.0,-9999,N/A,29.90,4.0,NNE,10.4,-,0.03,Rain,Light Rain,30,2012-09-29 19:52:00
3:09 PM,64.4,62.6,94,29.95,4.0,North,10.4,-,0.03,Rain,Rain,10,2012-09-29 20:09:00
3:42 PM,64.4,62.6,94,29.94,7.0,North,12.7,-,0.07,Rain,Light Rain,10,2012-09-29 20:42:00
3:52 PM,64.0,62.6,95,29.89,8.0,North,13.8,-,0.07,Rain,Light Rain,10,2012-09-29 20:52:00
4:52 PM,64.9,62.6,92,29.89,7.0,North,16.1,24.2,0.02,Rain,Light Rain,10,2012-09-29 21:52:00
4:59 PM,64.4,-9999,N/A,29.94,10.0,North,16.1,-,0.00,Rain,Light Rain,360,2012-09-29 21:59:00
5:22 PM,64.4,62.6,94,29.94,9.0,North,13.8,-,0.00,Rain,Light Rain,360,2012-09-29 22:22:00
5:52 PM,64.9,62.6,92,29.89,10.0,North,13.8,-,0.00,Rain,Light Rain,360,2012-09-29 22:52:00
6:01 PM,64.4,64.4,100,29.95,9.0,North,13.8,-,0.00,Rain,Light Rain,10,2012-09-29 23:01:00
6:13 PM,64.4,64.4,100,29.95,10.0,North,15.0,-,0.00,Rain,Light Rain,10,2012-09-29 23:13:00
6:31 PM,64.4,64.4,100,29.95,10.0,North,16.1,23.0,0.00,Rain,Light Rain,360,2012-09-29 23:31:00
6:34 PM,64.4,64.4,100,29.95,10.0,North,16.1,-,0.00,Rain,Light Rain,10,2012-09-29 23:34:00
6:52 PM,64.0,63.0,96,29.91,10.0,North,13.8,-,0.00,,Overcast,10,2012-09-29 23:52:00
7:33 PM,62.6,62.6,100,29.96,8.0,North,11.5,-,N/A,,Overcast,350,2012-09-30 00:33:00
7:43 PM,62.6,62.6,100,29.96,9.0,North,12.7,-,N/A,,Overcast,360,2012-09-30 00:43:00
7:52 PM,63.0,62.1,97,29.92,10.0,North,11.5,-,N/A,,Overcast,360,2012-09-30 00:52:00
8:32 PM,64.4,62.6,94,29.97,10.0,North,11.5,-,N/A,,Overcast,360,2012-09-30 01:32:00
8:52 PM,64.0,63.0,96,29.92,10.0,North,10.4,-,N/A,,Overcast,360,2012-09-30 01:52:00
9:03 PM,64.4,62.6,94,29.97,4.0,North,9.2,-,N/A,,Overcast,360,2012-09-30 02:03:00
9:11 PM,64.4,62.6,94,29.98,2.0,North,9.2,-,0.01,,Overcast,10,2012-09-30 02:11:00
9:27 PM,62.6,62.6,100,29.98,3.0,North,6.9,-,0.02,Rain,Light Rain,350,2012-09-30 02:27:00
9:52 PM,64.0,64.0,100,29.94,10.0,North,5.8,-,0.02,,Overcast,360,2012-09-30 02:52:00
10:12 PM,64.4,62.6,94,29.99,10.0,North,9.2,-,N/A,,Mostly Cloudy,350,2012-09-30 03:12:00
10:27 PM,64.4,62.6,94,30.00,10.0,North,10.4,-,N/A,,Mostly Cloudy,350,2012-09-30 03:27:00
10:52 PM,64.0,64.0,100,29.96,10.0,NNW,10.4,-,N/A,,Overcast,340,2012-09-30 03:52:00
11:06 PM,64.4,64.4,100,29.99,10.0,North,8.1,-,N/A,,Overcast,360,2012-09-30 04:06:00
11:48 PM,64.4,64.4,100,29.99,9.0,North,9.2,-,0.00,,Overcast,350,2012-09-30 04:48:00
11:52 PM,64.0,64.0,100,29.95,9.0,North,8.1,-,0.00,,Overcast,350,2012-09-30 04:52:00